RH
59 63 63 66 67 69 70 69 62 61 61 66 66 71 65 65 63 62 62 60 57 55 55 58 64 80 88 80 98 77 69 74 46 45 44 44 38 41 44 42 49 45 47 47 43 44 41
58 63 65 65 72 72 67 70 68 62 62 61 64 66 66 65 64 64 62 61 59 58 56 59 66 82 76 89 84 70 60 65 59 48 47 45 46 42 47 46 41 45 48 44 42 40 41
59 64 65 69 69 68 68 70 70 64 63 62 62 64 63 62 64 64 63 62 61 59 60 62 73 69 64 98 77 66 70 80 57 46 48 42 41 40 44 51 48 51 46 40 40 42 41
61 64 65 69 69 64 65 66 74 67 64 65 65 64 65 63 63 64 67 77 76 73 68 76 73 62 98 92 70 71 53 46 38 38 42 40 36 43 44 45 48 46 47 39 36 46 46
64 64 65 69 68 64 67 69 71 70 66 66 67 66 66 67 65 68 76 78 78 82 90 77 75 67 98 89 84 76 64 54 44 42 40 36 42 51 48 54 47 47 58 44 35 45 49
67 67 66 67 70 66 62 69 71 71 67 67 66 64 67 72 68 71 70 76 80 82 83 78 81 80 81 97 81 68 50 44 49 48 49 50 53 55 56 51 46 43 52 50 44 42 45
66 65 65 66 71 70 67 64 73 71 68 69 66 63 64 70 72 70 64 61 71 81 80 92 84 85 83 74 65 69 47 41 42 45 56 60 55 68 58 48 44 47 48 51 43 41 55
65 68 69 66 68 71 69 70 67 70 69 71 66 66 62 64 73 72 65 78 89 79 90 77 77 83 73 66 75 54 45 50 51 63 58 58 54 55 55 56 56 55 57 52 49 50 53
65 65 69 71 67 71 72 72 73 70 72 73 70 69 63 62 66 68 83 92 78 83 83 78 77 84 87 61 62 60 49 53 56 60 58 53 58 55 55 62 62 55 58 56 65 54 46
68 67 69 72 75 70 71 72 74 75 74 72 72 68 71 59 56 64 77 73 78 77 91 96 78 82 67 64 74 54 52 58 62 63 64 60 58 56 59 59 56 64 51 57 62 71 81
75 66 68 72 75 76 74 72 73 74 78 77 72 73 71 71 62 67 68 69 74 73 85 87 80 61 61 67 66 64 54 56 72 71 63 58 64 68 72 63 56 58 57 62 66 82 95
77 73 67 68 72 76 77 76 73 75 76 80 72 73 71 58 62 69 71 75 75 92 94 92 91 93 81 78 70 62 61 53 58 71 64 59 50 57 54 54 56 49 63 64 68 86 95
78 77 71 68 69 69 76 79 78 75 75 80 80 72 69 62 66 70 70 68 96 88 86 86 86 77 68 70 69 69 66 64 71 95 94 70 68 60 56 68 65 72 80 92 88 92 72
76 79 75 67 70 70 75 79 79 75 75 80 80 75 70 62 67 71 69 78 84 77 75 70 75 74 68 76 69 71 72 79 78 76 82 91 89 68 59 63 72 73 96 96 90 74 65
81 80 78 74 67 71 75 78 78 75 81 81 71 70 67 65 70 70 69 98 97 78 66 71 72 67 81 86 71 72 86 82 75 74 82 91 71 64 62 62 68 89 98 76 100 95 92
84 77 79 76 68 73 75 77 77 73 80 75 74 68 70 71 72 74 91 91 85 73 69 65 72 67 68 69 74 77 73 65 75 71 65 72 83 59 68 70 71 89 89 99 98 89 84
83 81 79 76 72 75 75 77 79 80 80 72 70 73 68 76 72 67 99 89 73 65 71 69 61 66 66 71 70 69 66 64 66 76 73 84 81 65 66 78 88 79 97 98 97 85 80
82 82 80 80 74 76 77 80 81 80 77 64 73 97 71 79 82 80 79 71 73 67 66 69 68 52 60 69 69 67 63 58 58 63 77 67 76 85 60 50 51 58 88 96 84 93 73
81 84 81 80 75 80 83 84 83 81 78 68 73 83 68 71 87 79 68 68 66 66 67 66 62 58 54 58 62 64 58 55 61 66 64 63 72 80 56 51 50 57 79 92 78 78 76
81 84 82 80 76 83 86 83 81 79 76 59 54 94 67 70 70 60 67 72 70 66 66 62 62 57 53 54 54 58 51 54 54 56 69 61 59 64 62 51 54 58 53 78 71 87 62
82 82 84 79 73 80 84 83 81 80 74 57 65 85 77 85 69 68 66 69 69 67 64 59 56 66 66 56 52 55 60 52 49 54 57 54 67 70 54 50 53 56 53 64 76 68 73
82 80 83 77 72 82 84 84 84 80 70 73 68 75 74 73 68 68 71 68 67 68 63 60 55 61 59 60 61 66 67 57 52 48 52 55 70 64 69 52 56 58 48 48 66 67 62
82 83 83 75 72 82 84 87 87 80 68 76 91 82 67 80 69 68 62 63 63 67 63 61 60 60 61 56 54 51 54 56 56 62 56 59 61 67 59 46 44 43 36 44 49 52 59
86 85 84 74 72 83 84 81 80 80 79 74 87 77 61 59 61 56 68 69 68 66 73 62 66 65 57 56 63 67 68 68 66 65 56 56 60 68 78 54 50 35 44 42 47 47 48
86 85 83 74 70 81 81 79 78 77 78 80 90 83 76 52 54 62 68 64 62 59 66 71 60 59 57 56 52 44 43 44 50 56 58 54 56 64 67 50 24 32 35 45 48 41 40
88 86 84 79 68 81 80 81 77 77 76 77 81 81 68 53 48 56 61 62 58 59 56 62 56 58 57 54 52 48 32 42 41 48 53 59 56 53 59 56 29 25 41 39 40 39 35
90 88 87 84 72 73 79 78 79 78 75 74 75 79 67 68 59 60 60 61 63 70 60 63 62 65 63 54 51 48 48 54 45 47 51 58 56 63 52 48 32 30 41 39 44 29 38
93 92 90 89 80 72 79 80 78 78 73 68 72 77 67 70 63 66 61 70 76 70 57 57 61 68 71 67 57 52 58 50 59 51 46 39 40 48 51 61 56 41 45 42 33 38 43
95 94 93 91 87 78 75 81 81 75 72 72 72 72 72 72 64 66 59 59 58 59 59 71 67 72 66 75 69 64 62 64 57 45 52 51 39 40 42 33 39 41 40 37 39 41 40
Wind_Speed
20 20 23 25 25 25 24 21 20 21 23 20 21 21 17 13 10 9 7 4 3 3 2 2 1 12 10 7 5 7 3 14 13 8 9 8 8 5 7 5 5 4 3 3 6 7 11
20 21 23 24 27 25 24 22 19 19 19 18 17 16 15 13 11 9 6 4 2 1 2 1 1 3 6 11 3 6 15 11 7 9 6 4 5 7 9 4 2 2 3 7 8 10 8
21 22 23 25 26 26 25 22 19 17 17 16 15 14 13 10 11 9 7 6 6 3 4 3 5 5 13 9 5 12 10 4 3 7 7 5 8 3 7 7 3 1 5 6 6 2 3
20 22 23 26 26 27 27 24 23 16 17 16 14 14 13 12 9 10 11 10 6 6 7 4 17 6 7 5 8 13 7 13 12 13 13 8 9 9 3 7 4 2 3 4 4 2 1
21 22 23 25 25 27 25 23 23 16 16 17 17 15 16 13 11 10 9 21 20 17 15 11 9 8 6 9 7 6 3 8 13 12 9 6 4 4 4 3 4 2 2 4 3 2 1
21 22 23 25 25 24 27 25 21 19 17 17 17 11 16 17 10 9 8 19 21 15 11 13 6 7 6 5 4 2 2 4 6 9 7 4 3 3 3 1 1 2 1 4 7 1 7
21 22 23 24 26 25 24 26 23 19 18 17 15 12 16 20 12 12 3 1 2 8 12 12 14 18 12 5 4 3 2 8 4 2 3 3 2 4 4 4 5 3 3 8 10 6 10
21 21 23 23 25 25 24 23 23 19 18 18 16 13 11 15 17 9 6 6 3 2 12 17 15 10 5 2 7 4 3 1 1 6 4 4 5 3 5 5 3 2 5 7 9 1 10
20 21 22 23 23 24 24 23 20 20 18 18 16 16 8 9 10 11 13 8 4 4 7 9 10 6 4 4 5 4 5 2 4 4 2 3 6 7 4 4 3 4 8 5 6 11 10
20 20 21 21 21 22 22 22 22 20 18 16 17 15 16 7 2 5 4 6 2 3 6 12 9 6 5 1 5 4 4 3 1 3 2 2 3 5 3 4 6 6 4 7 7 9 5
20 19 20 19 20 20 21 21 21 20 18 15 14 15 12 12 4 3 4 5 4 2 6 8 5 5 7 4 4 2 3 4 3 2 4 3 5 5 3 4 9 3 3 8 11 9 9
19 19 19 19 18 19 19 19 19 19 19 17 11 14 10 4 3 5 6 6 3 1 7 3 6 5 3 3 2 1 2 1 2 2 1 3 0 4 5 4 11 7 10 11 5 3 5
18 19 19 19 20 19 19 19 19 18 19 18 12 8 5 1 2 6 6 3 1 8 1 3 3 2 3 4 3 1 1 2 3 2 5 5 3 2 5 4 1 5 5 2 4 4 3
18 18 19 19 19 20 20 19 19 19 19 19 10 5 4 2 3 5 3 2 11 4 5 1 1 3 4 4 2 1 0 3 1 2 1 3 2 5 7 5 1 3 2 3 5 3 8
16 18 19 20 19 19 20 20 19 19 20 11 2 2 2 5 4 1 2 8 3 1 1 2 3 1 2 1 2 1 1 2 1 6 0 2 1 3 7 2 2 3 4 1 4 4 4
12 17 18 20 20 20 20 20 20 19 18 5 1 2 4 7 3 3 6 7 2 2 2 2 2 1 2 1 1 0 1 3 2 5 3 1 4 2 2 4 4 5 2 3 3 4 4
13 14 18 19 20 20 21 21 22 19 16 1 1 2 5 2 3 6 5 4 2 2 2 3 2 1 1 2 2 2 0 4 5 6 5 2 2 0 2 6 5 2 2 3 2 3 4
14 12 17 18 19 21 21 21 20 17 12 3 1 3 4 2 3 2 4 1 1 1 0 2 3 3 1 1 2 1 2 2 4 5 3 3 3 5 3 4 7 1 0 2 4 5 4
13 11 14 17 18 19 21 20 17 17 11 2 3 0 2 2 2 2 3 4 2 2 3 2 2 3 3 2 2 2 1 2 6 5 2 4 3 5 3 4 5 5 5 4 3 4 6
11 11 12 15 16 18 19 18 16 17 12 2 2 1 2 3 2 1 3 2 4 3 3 2 3 1 1 2 1 3 4 1 2 2 4 4 4 7 5 5 2 4 5 7 9 5 3
11 10 9 13 16 17 18 18 18 17 9 1 4 3 1 3 4 4 3 1 2 4 2 1 4 4 1 1 1 2 3 4 2 4 1 4 5 3 12 14 9 9 10 7 14 11 7
12 10 6 10 14 16 16 16 17 18 5 4 1 2 2 3 1 4 3 1 3 1 3 2 4 5 5 3 3 3 1 3 1 2 2 1 4 4 7 3 8 11 12 12 10 12 13
11 10 5 8 11 13 13 13 16 18 5 3 1 1 3 1 3 1 2 2 3 4 2 4 2 2 5 5 6 8 8 6 3 2 2 2 4 5 5 5 9 12 15 15 7 7 6
9 10 5 6 8 10 11 12 13 15 9 2 2 1 1 3 4 4 2 1 1 4 6 4 3 4 6 7 3 2 5 8 9 10 8 4 2 2 5 7 4 3 3 0 8 7 11
8 9 6 4 6 7 7 10 11 12 10 4 2 1 0 1 3 4 7 4 3 3 3 3 3 3 7 5 5 5 3 3 6 8 12 9 3 3 4 3 12 1 2 2 3 3 4
8 7 6 4 3 5 5 7 9 9 6 3 2 1 2 2 4 1 3 4 3 3 4 4 3 3 1 1 2 4 4 4 2 2 2 4 7 6 3 4 6 3 4 4 3 6 3
8 7 6 7 4 4 4 5 7 7 6 2 2 1 1 3 2 5 4 3 3 1 3 2 1 2 1 2 3 3 3 1 4 3 4 4 6 10 9 7 8 4 5 4 4 3 1
9 9 8 10 8 6 4 5 5 4 5 2 1 0 0 1 4 6 5 5 3 2 2 3 2 2 2 4 3 1 3 1 3 3 3 5 4 5 3 5 7 5 5 5 5 2 2
10 10 10 10 10 8 7 5 5 2 3 4 1 1 0 3 4 3 6 4 4 4 3 4 2 2 2 2 3 1 4 3 3 5 3 5 5 4 6 3 4 5 4 2 4 7 8
Wind_Direction
10 9 357 353 353 354 357 1 6 5 8 30 51 30 44 56 65 62 62 59 73 83 88 50 47 139 101 97 65 320 175 171 128 125 136 133 147 134 139 135 133 194 171 240 264 265 268
9 4 2 356 356 353 2 7 360 7 8 17 30 54 47 25 30 31 24 8 316 93 111 166 87 194 179 99 15 59 77 86 74 110 116 138 140 116 109 115 220 120 229 261 267 270 258
10 6 1 358 357 2 7 7 3 7 10 13 17 28 34 39 10 5 351 304 251 193 161 208 189 205 87 79 88 70 64 85 198 121 105 90 121 125 127 130 119 123 281 260 247 244 254
7 8 1 3 3 10 8 7 4 14 9 11 13 14 20 7 19 359 343 292 227 148 129 176 146 80 79 98 97 61 59 80 92 89 95 104 100 94 78 120 128 201 234 246 150 207 134
7 6 3 4 13 16 14 13 6 21 14 11 15 15 24 19 9 20 2 76 97 92 76 58 55 60 95 116 74 86 28 96 94 91 87 87 72 80 137 170 163 82 274 291 275 209 252
8 4 5 7 10 18 16 15 15 19 21 14 23 24 26 19 20 42 36 93 98 83 69 76 78 90 339 64 73 51 37 84 94 110 99 63 69 112 90 170 248 121 322 284 272 82 291
9 6 6 8 8 14 16 20 24 28 20 18 22 16 17 25 32 41 19 299 113 52 39 52 73 82 83 105 57 32 83 115 110 103 91 49 161 93 104 87 84 91 286 285 286 307 294
5 9 6 8 9 11 13 20 21 29 20 17 18 11 24 25 26 44 59 64 36 62 64 39 70 73 70 85 111 138 339 59 68 95 111 170 99 72 118 140 160 223 294 291 298 211 301
10 8 9 9 8 9 11 13 21 20 21 14 13 14 359 1 0 39 63 39 18 328 82 31 36 27 343 4 93 115 352 32 72 91 85 53 102 124 143 156 201 237 255 282 281 314 269
14 7 10 11 9 6 8 9 14 16 18 21 13 20 26 326 28 337 45 342 12 291 82 8 14 37 356 47 70 21 3 2 105 81 139 70 120 183 204 243 222 280 204 267 293 332 315
9 11 6 10 9 9 3 7 4 4 7 11 15 12 355 31 98 85 287 319 335 270 72 351 10 314 326 48 126 92 358 329 49 22 241 102 170 182 222 248 191 283 221 277 287 281 295
10 8 6 4 10 7 4 1 0 355 354 2 4 9 8 37 62 10 318 288 225 184 65 4 356 8 55 340 67 72 333 327 295 315 256 284 56 258 251 242 221 308 309 289 245 238 238
8 4 5 4 2 5 3 357 355 349 347 348 345 20 34 321 61 330 299 264 70 54 157 38 54 294 21 63 99 27 337 11 2 347 19 329 218 224 225 262 170 237 278 266 205 210 305
5 2 0 2 3 0 360 357 355 346 343 333 334 27 28 26 351 342 296 50 64 19 61 119 7 316 63 4 109 119 64 9 136 258 4 31 137 194 191 251 10 207 224 313 298 297 321
354 2 356 360 1 1 359 351 351 349 344 350 31 11 35 10 322 276 48 57 79 216 93 181 181 350 78 334 348 10 250 319 251 212 360 327 259 167 208 207 247 102 221 58 275 226 259
355 357 358 356 357 359 359 350 347 351 354 15 10 26 22 340 332 291 63 85 77 340 297 231 346 262 124 145 236 263 348 137 198 188 238 14 294 173 130 186 217 221 354 217 185 281 277
348 352 355 358 356 355 356 349 344 347 356 34 6 42 16 17 264 62 63 82 48 323 294 268 353 329 44 199 244 218 283 181 207 162 181 342 293 78 214 201 178 189 211 188 308 255 295
346 354 350 357 356 355 350 352 348 356 358 79 109 49 14 310 17 58 103 105 6 40 261 315 287 290 285 189 271 269 345 332 153 155 211 209 306 275 260 168 197 99 330 206 260 169 234
343 354 351 354 359 351 352 358 3 354 17 294 66 96 116 278 106 76 130 131 138 83 37 21 323 4 355 355 307 331 329 42 166 193 252 163 216 291 212 176 166 239 182 229 248 294 234
342 352 354 354 360 354 356 3 5 359 360 350 121 53 50 71 24 62 139 113 140 164 136 159 15 196 340 47 18 310 333 209 317 225 240 211 255 246 280 330 354 265 251 212 210 219 209
339 354 355 355 360 360 0 356 360 359 7 302 358 99 29 24 36 357 342 329 162 166 197 127 136 91 183 343 281 349 332 309 158 4 148 254 272 246 261 267 250 255 265 230 213 243 244
333 338 356 0 0 2 360 357 360 6 27 73 60 155 139 104 18 349 340 246 251 247 227 205 176 176 154 171 214 250 232 227 308 347 359 359 284 316 286 300 227 255 255 235 236 247 251
330 324 352 358 6 4 4 1 358 18 31 80 102 71 277 117 127 244 31 334 293 318 241 316 305 231 226 243 233 264 260 260 246 266 288 288 314 331 274 350 302 266 251 209 211 224 244
316 322 327 354 3 10 13 12 10 25 59 69 53 342 263 152 200 191 173 128 331 338 316 329 279 282 16 328 292 221 231 241 237 231 226 221 232 216 285 316 264 32 24 108 227 257 223
307 316 304 330 356 0 18 15 12 28 43 80 99 322 309 259 278 188 195 191 234 211 224 253 253 305 313 311 290 280 204 218 207 222 212 220 223 231 262 266 287 184 175 210 226 281 259
283 295 276 268 318 335 355 18 13 22 60 94 85 61 320 291 221 34 184 199 222 212 214 218 202 294 311 342 290 290 302 350 269 159 78 193 266 255 180 240 250 141 172 167 178 258 352
271 274 270 242 237 278 304 345 6 27 61 86 86 134 116 293 199 174 205 199 158 238 275 295 279 165 342 229 251 249 261 316 277 260 183 203 216 234 239 258 282 160 154 149 204 103 188
260 261 259 233 235 229 262 282 316 18 87 119 85 274 40 240 263 209 202 167 149 209 234 88 252 170 164 212 239 242 250 257 266 271 255 233 225 214 202 240 279 132 122 227 24 66 280
259 253 252 239 227 227 227 255 267 313 79 130 137 119 65 243 283 233 250 245 216 188 181 180 307 219 226 211 205 230 228 208 245 271 179 250 247 324 240 284 9 227 313 315 340 305 292